Location: Dittelbrunn
(50.0738°N, 10.2196°E)
Time: 04:50:05
(UTC+00:00)

Cosmos 2227 Rocket - Pass Details

Date: 18 September 2020
Orbit: 840 x 844 km, 71.0° (Epoch: 20 October)

Event Time Altitude Azimuth Distance (km) Brightness Sun altitude
Rises 23:34:45 0° 333° (NNW) 3,407 6.0 -38.3°
Reaches altitude 10° 23:37:50 10° 349° (N) 2,469 5.3 -38.3°
Maximum altitude 23:42:05 21° 38° (NE) 1,798 4.3 -38.2°
Enters shadow 23:43:11 20° 54° (NE) 1,849 4.3 -38.1°
